FW0344 Weather Reports


time (UTC)temp
F
wind
direction
speed
knots
gust
knots
rain 1hr
in
rain 24hr
in
rain mn
in
humidity
%
barometer
mb
20260502163626 55 90 5.2 8.7 0.00 0.22 0.22 89 1011.2
20260502162704 55 97 5.2 9.6 0.00 0.22 0.22 89 1011.4
20260502161805 55 103 5.2 11.3 0.00 0.22 0.22 89 1011.4
20260502160905 55 98 5.2 9.6 0.00 0.22 0.22 89 1011.4
20260502151805 54 81 4.3 8.7 0.01 0.22 0.22 88 1012.0
20260502150904 54 84 3.5 7.0 0.02 0.22 0.22 87 1012.2
20260502123605 61 80 4.3 9.6 0.00 0.00 0.00 70 1013.6
20260502122705 62 89 5.2 9.6 0.00 0.00 0.00 70 1013.6
20260502121804 62 83 4.3 9.6 0.00 0.00 0.00 70 1013.9
20260502120925 63 76 4.3 7.8 0.00 0.00 0.00 71 1014.3
20260502115426 63 73 5.2 8.7 0.00 0.00 0.00 73 1014.7
20260502114504 63 79 4.3 7.8 0.00 0.00 0.00 72 1014.7
20260502113605 64 68 4.3 8.7 0.00 0.00 0.00 72 1014.8
20260502112705 63 85 5.2 7.8 0.00 0.00 0.00 71 1015.0
20260502111825 63 86 5.2 9.6 0.00 0.00 0.00 70 1015.1
20260502110905 63 76 5.2 9.6 0.00 0.00 0.00 74 1015.2
20260502110005 63 74 6.1 10.4 0.00 0.00 0.00 74 1015.2
20260502105405 63 66 6.1 11.3 0.00 0.00 0.00 74 1015.2
20260502104505 64 54 5.2 8.7 0.00 0.00 0.00 74 1015.4
20260502103625 63 59 5.2 9.6 0.00 0.00 0.00 77 1015.5
20260502102705 63 61 5.2 8.7 0.00 0.00 0.00 78 1015.6
20260502101804 62 66 5.2 8.7 0.00 0.00 0.00 79 1015.8
20260502100905 61 74 5.2 9.6 0.00 0.00 0.00 80 1016.0
20260502090926 59 58 3.5 7.0 0.00 0.00 0.00 83 1016.7
20260502070904 53 100 1.7 3.5 0.00 0.00 0.00 92 1017.4
20260502070003 53 88 1.7 3.5 0.00 0.00 0.00 92 1017.6
20260502065424 53 72 0.9 3.5 0.00 0.00 0.00 92 1017.5
20260502064504 52 134 0.9 2.6 0.00 0.00 0.00 92 1017.6
20260502063604 52 139 1.7 5.2 0.00 0.00 0.00 92 1017.5
20260502062705 52 105 0.0 1.7 0.00 0.00 0.00 92 1017.5
20260502061804 52 105 0.9 2.6 0.00 0.00 0.00 92 1017.4
20260502060904 52 117 0.0 2.6 0.00 0.00 0.00 92 1017.3
20260502060025 52 0 0.0 0.0 0.00 0.00 0.00 91 1017.3
20260502055403 52 167 0.0 0.9 0.00 0.00 0.00 91 1017.5
20260502054504 52 167 0.0 0.9 0.00 0.00 0.00 91 1017.4
20260502053604 51 0 0.0 0.0 0.00 0.00 0.00 91 1017.6
20260502052704 52 167 0.9 4.3 0.00 0.00 0.00 91 1017.6
20260502051807 52 143 0.9 4.3 0.00 0.00 0.00 91 1017.7
20260502050906 51 131 0.9 2.6 0.00 0.00 0.00 91 1017.5
20260502050027 51 0 0.0 0.0 0.00 0.00 0.00 91 1017.4
20260502045406 51 0 0.0 0.0 0.00 0.00 0.00 91 1017.5
20260502044528 51 131 0.0 0.9 0.00 0.00 0.00 91 1017.5
20260502043628 51 309 0.0 1.7 0.00 0.00 0.00 91 1017.5
20260502042706 52 0 0.0 0.0 0.00 0.00 0.00 91 1017.5
20260502041806 52 0 0.0 0.0 0.00 0.00 0.00 91 1017.6
20260502040907 52 309 0.0 2.6 0.00 0.00 0.00 91 1017.5
20260502040006 52 309 0.0 2.6 0.00 0.00 0.00 91 1017.5
20260502035407 52 0 0.0 0.0 0.00 0.00 0.00 90 1017.6
20260502034506 52 0 0.0 0.0 0.00 0.00 0.00 90 1017.8
20260502033607 52 0 0.0 0.0 0.00 0.00 0.00 90 1017.8
20260502032706 52 309 0.0 1.7 0.00 0.00 0.00 90 1017.8
20260502031805 52 306 0.9 1.7 0.00 0.00 0.00 90 1017.9
20260502030907 52 301 0.9 2.6 0.00 0.00 0.00 90 1017.9
20260502030006 52 307 0.9 2.6 0.00 0.00 0.00 90 1017.9
20260502025407 52 326 0.0 1.7 0.00 0.00 0.00 90 1017.9
20260502024528 53 200 0.0 1.7 0.00 0.00 0.00 90 1018.0
20260502023628 53 200 0.0 1.7 0.00 0.00 0.00 90 1018.1
20260502022726 53 200 0.9 1.7 0.00 0.00 0.00 90 1018.3
20260502021806 53 200 0.9 1.7 0.00 0.00 0.00 90 1018.4
20260502020907 53 200 0.9 2.6 0.00 0.00 0.00 90 1018.5
20260502020006 53 200 0.0 1.7 0.00 0.00 0.00 90 1018.5
20260502015405 53 200 0.0 1.7 0.00 0.00 0.00 90 1018.5
20260502014505 53 200 0.9 2.6 0.00 0.00 0.00 90 1018.6
20260502013606 53 210 1.7 3.5 0.00 0.00 0.00 90 1018.5
20260502012728 54 228 0.9 3.5 0.00 0.00 0.00 90 1018.7
20260502011806 54 228 0.9 2.6 0.00 0.00 0.00 90 1018.8
20260502010905 54 228 0.9 2.6 0.00 0.00 0.00 90 1018.9
20260502010006 54 228 0.0 1.7 0.00 0.00 0.00 90 1018.9
20260502005406 54 228 0.0 1.7 0.00 0.00 0.00 90 1018.9
20260502004505 54 228 0.9 2.6 0.00 0.00 0.00 90 1018.9
20260502003605 54 228 0.9 2.6 0.00 0.00 0.00 90 1019.0
20260502002705 54 244 1.7 5.2 0.00 0.00 0.00 90 1019.0
20260502001826 54 234 1.7 4.3 0.00 0.00 0.00 90 1019.1
20260502000905 54 257 0.9 1.7 0.00 0.00 0.00 90 1019.2
20260502000005 54 257 0.9 5.2 0.00 0.00 0.00 90 1019.2
20260501235426 54 257 1.7 5.2 0.00 0.00 0.00 90 1019.2
20260501234505 53 257 0.9 2.6 0.00 0.00 0.00 90 1019.3
20260501233605 53 257 0.9 3.5 0.00 0.00 0.00 90 1019.3
20260501232727 53 252 1.7 6.1 0.00 0.00 0.00 90 1019.4
20260501231826 53 235 2.6 5.2 0.00 0.00 0.00 90 1019.5
20260501230905 53 238 2.6 6.1 0.00 0.00 0.00 90 1019.6
20260501230006 53 251 2.6 6.1 0.00 0.00 0.00 90 1019.6
20260501225406 53 265 1.7 5.2 0.00 0.00 0.00 90 1019.7
20260501224506 53 256 3.5 8.7 0.00 0.00 0.00 90 1019.7
20260501223605 53 248 3.5 8.7 0.00 0.00 0.00 90 1019.7
20260501222706 53 255 2.6 6.1 0.00 0.00 0.00 90 1019.8
20260501221826 53 258 3.5 7.8 0.00 0.00 0.00 90 1019.8
20260501220906 53 259 4.3 9.6 0.00 0.00 0.00 89 1019.8
20260501215405 53 249 2.6 6.1 0.00 0.00 0.00 89 1019.8
20260501214505 53 247 2.6 7.8 0.00 0.00 0.00 89 1019.8
20260501213627 53 243 3.5 7.8 0.00 0.00 0.00 89 1019.7
20260501212705 53 248 2.6 7.8 0.00 0.00 0.00 88 1019.8
20260501211805 53 246 3.5 7.8 0.00 0.00 0.00 88 1019.8
20260501210906 52 257 1.7 4.3 0.00 0.00 0.00 88 1019.7
20260501210006 52 263 1.7 3.5 0.00 0.00 0.00 87 1019.6
20260501205427 52 255 2.6 4.3 0.00 0.00 0.00 87 1019.6
20260501204505 52 259 1.7 5.2 0.00 0.00 0.00 87 1019.7
20260501203606 52 260 1.7 4.3 0.00 0.00 0.00 86 1019.6
20260501202706 53 248 2.6 5.2 0.00 0.00 0.00 86 1019.5
20260501201805 53 246 2.6 4.3 0.00 0.00 0.00 86 1019.5
20260501200906 53 236 1.7 6.1 0.00 0.00 0.00 85 1019.4
20260501200006 53 240 2.6 5.2 0.00 0.00 0.00 85 1019.5
20260501195406 54 242 3.5 7.0 0.00 0.00 0.00 85 1019.5
20260501194506 54 244 3.5 7.0 0.00 0.00 0.00 84 1019.3
20260501193605 54 240 3.5 7.8 0.00 0.00 0.00 84 1019.3
20260501192706 54 238 3.5 7.8 0.00 0.00 0.00 84 1019.3
20260501191806 55 244 3.5 7.0 0.00 0.00 0.00 83 1019.2
20260501190905 55 232 3.5 7.0 0.00 0.00 0.00 82 1019.1
20260501190028 55 237 3.5 8.7 0.00 0.00 0.00 82 1019.0
20260501185406 55 240 4.3 8.7 0.00 0.00 0.00 82 1019.2
20260501184505 56 240 4.3 8.7 0.00 0.00 0.00 81 1019.2
20260501183605 56 235 4.3 8.7 0.00 0.00 0.00 80 1019.2
20260501182706 56 236 5.2 10.4 0.00 0.00 0.00 80 1019.1
20260501181826 57 242 4.3 9.6 0.00 0.00 0.00 79 1019.1
20260501180905 57 242 5.2 10.4 0.00 0.00 0.00 79 1019.1
20260501180028 58 243 6.1 11.3 0.00 0.00 0.00 79 1019.0
20260501175426 58 243 7.0 11.3 0.00 0.00 0.00 78 1019.0
20260501174504 58 237 5.2 10.4 0.00 0.00 0.00 78 1019.0
20260501173606 58 250 4.3 9.6 0.00 0.00 0.00 78 1018.9
20260501172704 58 231 5.2 10.4 0.00 0.00 0.00 78 1019.0
20260501171805 58 228 5.2 12.2 0.00 0.00 0.00 78 1019.1
20260501170925 58 224 6.1 10.4 0.00 0.00 0.00 78 1019.1
20260501170005 59 212 6.1 11.3 0.00 0.00 0.00 77 1019.2
20260501165404 59 223 6.1 10.4 0.00 0.00 0.00 77 1019.3
20260501164506 60 219 4.3 10.4 0.00 0.00 0.00 77 1019.3